星链-11207 (STARLINK-11207)

导读

STARLINK-11207是美国太空探索技术公司 SpaceX 星链互联网卫星星座的一员,于2024年8月31日发射入轨。星链项目旨在为全球提供高速低延迟宽带互联网服务,该卫星承担星座组网扩容任务,依托低轨部署,服务偏远地区网络覆盖,助力全球互联格局构建。

Basic Information
目录编号:
60933
目录名称:
STARLINK-11207
国际标识:
2024-155K
轨道中心:
EARTH
卫星名称:
星链-11207
卫星全名:
星链-11207 (STARLINK-11207)
卫星状态:
在轨 (已飞行696 天)
发射日期:
2024-08-31 UTC
国别 :
美国 (US)
星等 :
--
Orbit Information
数据来源 国际轨道数据 AOE轨道数据
星历时间 2026-07-27T19:49:34+0800
13小时前
查看轨道信息
2026-07-25T01:00:00+0800
3天前
查看轨道信息
半长轴 6737.857km 6737.799km
偏心率 0.0000783 0.000001
轨道倾角 53.160° 53.162°
近地点辐角 82.740° 112.989°
升交点赤经 11.806° 25.534°
平近点角 277.371° 343.467°
近地点 359.192km 359.655km
远地点 360.248km 359.669km
周期 91.737分钟 91.735分钟
每日圈数 15.697127 15.697328
Detailed Information
固有亮度:
5
最大亮度:
2.5
卫星平台:
Starlink V1.0
覆盖范围:
全球
运营商:
太空探索技术公司
运营商所在国:
美国
制造商(研发单位):
太空探索技术公司
制造商所在国:
美国
使用方式:
暂无
Satellite Introduction
Starlink 计划是 SpaceX 推出的全球卫星互联网项目,通过发射低轨道卫星,为全球尤其是偏远地区提供高速、低延迟的互联网服务。自 2019 年起,Starlink 已部署数千颗卫星,旨在缩小全球数字鸿沟,推动互联网普及。该项目还为军事、航空等行业提供通信支持,带来广泛经济效益。
2D Orbit Map
3D Orbit Map
Orbit Altitude Analysis Chart
Orbit Inclination Analysis Chart
Orbit Comprehensive Analysis Chart
View Comprehensive Chart